Regional Weather Roundup
Issued by NWS Kansas City/Pleasant Hill, MO

Home | Current Version | Previous Version | Graphics & Text | Print | Product List | Glossary Off
Versions: 1 2 3 4 5 6 7 8 9 10 11 12 13 14 15 16 17 18 19 20 21 22 23 24 25 26 27 28 29 30 31 32 33 34 35 36 37 38 39 40 41 42 43 44 45 46 47 48 49 50

000
ASUS43 KEAX 010211
RWREAX

WEATHER ROUNDUP FOR EASTERN KANSAS AND NORTHWEST MISSOURI
NATIONAL WEATHER SERVICE KANSAS CITY/PLEASANT HILL MO
800 PM CST SAT FEB 28 2015

KSZ040-057-103>105-MOZ028-029-037-043-010300-
...KANSAS CITY METROPOLITAN AREA...

CITY           SKY/WX    TMP DP  RH WIND       PRES   REMARKS
K.C. INTL      CLOUDY    22  19  89 S7        30.37S WCI  13
K.C. DOWNTOWN  CLOUDY    24  18  77 E3        30.40S
LEES SUMMIT    LGT SNOW  22  19  89 CALM      30.39R FOG
OLATHE - IXD   CLOUDY    21  19  92 E3        30.38S
OLATHE - OJC   LGT SNOW  22  21  96 E3        30.36S FOG
LAWRENCE       CLOUDY    22  18  85 SE6       30.38F WCI  14

$$

MOZ001>008-011>017-020>025-030>033-038>040-044>046-053-054-010300-
...NORTHERN AND CENTRAL MISSOURI...

CITY           SKY/WX    TMP DP  RH WIND       PRES   REMARKS
ST. JOSEPH     CLOUDY    23  18  81 CALM      30.40S
MOSBY          CLOUDY    23  21  93 SE6       30.40S WCI  16
WARRENSBURG    LGT SNOW  23  21  93 CALM      30.40S
WHITEMAN AFB   LGT SNOW  23  20  91 E2        30.39R VSB 1
CLINTON        LGT SNOW  27  25  93 E3        30.40R
SEDALIA        LGT SNOW  24  21  88 E3        30.40R FOG
WARSAW         NOT AVBL
MARSHALL       LGT SNOW  25  23  93 E5        30.41  WCI  19
CHILLICOTHE      N/A     23  19  85 SE3       30.42S
KIRKSVILLE     LGT SNOW  20  18  92 SE5       30.42S FOG     WCI  13

$$

MOZ041-047>049-056>058-063>065-088>090-097-010300-
...EASTERN AND SOUTHERN MISSOURI...

CITY           SKY/WX    TMP DP  RH WIND       PRES   REMARKS
ST. LOUIS INTL LGT SNOW  25  21  86 E9        30.46F FOG     WCI  15
SPIRIT OF STL  LGT SNOW  25  22  88 E3        30.45F FOG
COLUMBIA       LGT SNOW  23  21  92 E7        30.40S FOG     WCI  15
JEFFERSON CITY LGT SNOW  25  22  88 E6        30.43S FOG     WCI  18
MEXICO         SNOW     N/A N/A N/A E7        30.41F VSB 1/2
ROLLA          LGT SNOW  24  21  88 E9        30.37F VSB 1   WCI  14
OSAGE BEACH    CLOUDY    25  21  86 E5        30.38F WCI  19
SPRINGFIELD    LGT SNOW  25  23  92 SE9       30.33F FOG     WCI  15
BRANSON        CLOUDY    25  23  93 SE7       30.37S WCI  17
NEVADA         LGT SNOW  25  23  93 CALM      30.39R
JOPLIN         LGT SNOW  25  23  92 E3        30.36S FOG
WEST PLAINS    FRZ RAIN  25  22  88 E6        30.40R FOG     WCI  18

$$

IAZ060-094-KSZ022-034>040-054-083-096-NEZ052-066-093-010300-
...KANSAS...SOUTHEAST NEBRASKA AND IOWA...

CITY           SKY/WX    TMP DP  RH WIND       PRES   REMARKS
TOPEKA         CLOUDY    23  18  81 SE7       30.38F WCI  15
MANHATTAN      CLOUDY    24  18  77 S3        30.35S
EMPORIA        CLOUDY    22  18  85 E3        30.35S
CHANUTE        CLOUDY    24  21  88 NE3       30.36S
WICHITA        CLOUDY    23  18  81 E6        30.32S WCI  16
OMAHA          FLURRIES  23  17  78 S10       30.36S WCI  12
LINCOLN        CLOUDY    22  15  75 S8        30.36R WCI  12
FALLS CITY     MOCLDY    20  16  84 SE3       30.37F
LAMONI         CLEAR     18  15  88 S5        30.38S WCI  11
DES MOINES     FLURRIES  22  18  85 SE6       30.39F WCI  14

$$



USA.gov is the U.S. government's official web portal to all federal, state and local government web resources and services.